Weather History for Stuart, FL

Change the Weather History Date:

Wednesday, September 26, 2012

  Actual Average Record
Temperature  
Mean Temperature 82 °F -  
Max Temperature 86 °F 87 °F 93 °F (1951)
Min Temperature 77 °F 73 °F 66 °F (1967)
Cooling Degree Days 16    
Growing Degree Days 32 (Base 50)    
Moisture  
Dew Point 74 °F    
Average Humidity 84    
Maximum Humidity 94    
Minimum Humidity 66    
Precipitation  
Precipitation 0.00 in - - ()
Sea Level Pressure  
Sea Level Pressure 30.08 in    
Wind  
Wind Speed 2 mph (NE)    
Max Wind Speed 8 mph    
Max Gust Speed -    
Visibility 9 miles    
Events Thunderstorm    
Averages and records for this station are not official NWS values.
T = Trace of Precipitation, MM = Missing Value Source: NWS Daily Summary

Daily Weather History Graph

Daily Weather History Graph

Search for Another Location

Airport:

Trip Planner

Search our weather history database for the weather conditions in past years. The results will help you decide how hot, cold, wet, or windy it might be!

Date:

Astronomy

Sep. 26, 2012 Rise Set
Actual Time 7:11 AM EDT 7:12 PM EDT
Civil Twilight 6:48 AM EDT 7:35 PM EDT
Nautical Twilight 6:21 AM EDT 8:02 PM EDT
Astronomical Twilight 5:54 AM EDT 8:29 PM EDT
Moon 4:57 PM EDT (9/26) 3:52 AM EDT (9/26)
Length of Visible Light 12h 47m
Length of Day
12h 00m
Waxing Gibbous, 88% of the Moon is Illuminated
Sep 26
Waxing Gibbous
Sep 29
Full
Oct 8
Last Quarter
Oct 15
New
Oct 21
First Quarter

Hourly Weather History & Observations

Time (EDT) Temp. Heat Index Dew Point Humidity Pressure Visibility Wind Dir Wind Speed Gust Speed Precip Events Conditions
12:35 AM 80.6 °F 85.4 °F 73.4 °F 79% 30.10 in 10.0 mi NE 3.5 mph - N/A   Scattered Clouds
12:55 AM 78.8 °F - 73.4 °F 83% 30.10 in 10.0 mi Calm Calm - N/A   Clear
1:15 AM 78.8 °F - 73.4 °F 83% 30.08 in 10.0 mi NE 4.6 mph - N/A Thunderstorm Clear
1:35 AM 78.8 °F - 73.4 °F 83% 30.08 in 10.0 mi NE 4.6 mph - N/A   Clear
1:55 AM 78.8 °F - 73.4 °F 83% 30.07 in 10.0 mi Calm Calm - N/A   Clear
2:15 AM 78.8 °F - 73.4 °F 83% 30.07 in 10.0 mi Calm Calm - N/A   Clear
2:35 AM 78.8 °F - 73.4 °F 83% 30.06 in 10.0 mi Calm Calm - N/A   Clear
2:55 AM 78.8 °F - 73.4 °F 83% 30.06 in 10.0 mi Calm Calm - N/A   Clear
3:15 AM 78.8 °F - 73.4 °F 83% 30.05 in 10.0 mi Calm Calm - N/A   Clear
3:35 AM 77.0 °F - 73.4 °F 89% 30.05 in 10.0 mi Calm Calm - N/A   Scattered Clouds
3:55 AM 77.0 °F - 73.4 °F 89% 30.04 in 10.0 mi Calm Calm - N/A   Clear
4:15 AM 77.0 °F - 73.4 °F 89% 30.04 in 10.0 mi Calm Calm - N/A   Scattered Clouds
4:35 AM 77.0 °F - 73.4 °F 89% 30.04 in 10.0 mi Calm Calm - N/A   Scattered Clouds
4:55 AM 77.0 °F - 73.4 °F 89% 30.04 in 10.0 mi Calm Calm - N/A   Scattered Clouds
5:15 AM 77.0 °F - 73.4 °F 89% 30.04 in 10.0 mi WNW 4.6 mph - N/A   Clear
5:35 AM 77.0 °F - 73.4 °F 89% 30.05 in 10.0 mi WNW 3.5 mph - N/A   Clear
5:55 AM 77.0 °F - 73.4 °F 89% 30.05 in 10.0 mi Calm Calm - N/A   Scattered Clouds
6:15 AM 77.0 °F - 73.4 °F 89% 30.06 in 10.0 mi Calm Calm - N/A   Scattered Clouds
6:47 AM 77.0 °F - 75.2 °F 94% 30.07 in 6.0 mi Calm Calm - N/A   Mostly Cloudy
7:47 AM 77.0 °F - 75.2 °F 94% 30.08 in 5.0 mi Calm Calm - N/A   Mostly Cloudy
8:47 AM 80.6 °F 87.1 °F 77.0 °F 89% 30.09 in 6.0 mi Calm Calm - N/A   Mostly Cloudy
9:47 AM 82.4 °F 90.9 °F 77.0 °F 84% 30.10 in 7.0 mi Calm Calm - N/A   Mostly Cloudy
10:47 AM 84.2 °F 90.9 °F 73.4 °F 70% 30.10 in 7.0 mi Calm Calm - N/A   Mostly Cloudy
11:47 AM 86.0 °F 93.4 °F 73.4 °F 66% 30.11 in 7.0 mi East 6.9 mph - N/A   Mostly Cloudy
12:47 PM 84.2 °F 90.9 °F 73.4 °F 70% 30.11 in 7.0 mi East 6.9 mph - N/A   Overcast
1:47 PM 84.2 °F 90.9 °F 73.4 °F 70% 30.09 in 7.0 mi NE 5.8 mph - N/A   Overcast
2:47 PM 84.2 °F 90.9 °F 73.4 °F 70% 30.08 in 7.0 mi ENE 8.1 mph - N/A   Overcast
3:47 PM 84.2 °F 90.9 °F 73.4 °F 70% 30.06 in 7.0 mi NE 8.1 mph - N/A   Overcast
4:47 PM 84.2 °F 90.9 °F 73.4 °F 70% 30.06 in 7.0 mi ENE 8.1 mph - N/A   Overcast
6:50 PM 82.4 °F 89.5 °F 75.2 °F 79% 30.09 in 7.0 mi East 8.1 mph - N/A   Mostly Cloudy
8:15 PM 80.6 °F 86.2 °F 75.2 °F 84% 30.11 in 10.0 mi Calm Calm - N/A Thunderstorm Clear
8:35 PM 80.6 °F 86.2 °F 75.2 °F 84% 30.11 in 10.0 mi Calm Calm - N/A   Clear
8:55 PM 80.6 °F 87.1 °F 77.0 °F 89% 30.11 in 10.0 mi Calm Calm - N/A   Clear
9:15 PM 80.6 °F 87.1 °F 77.0 °F 89% 30.10 in 10.0 mi Calm Calm - N/A   Clear
9:35 PM 80.6 °F 87.1 °F 77.0 °F 89% 30.11 in 10.0 mi Calm Calm - N/A   Clear
9:55 PM 78.8 °F - 75.2 °F 89% 30.11 in 10.0 mi Calm Calm - N/A   Clear
10:15 PM 78.8 °F - 75.2 °F 89% 30.11 in 10.0 mi Calm Calm - N/A   Clear
10:35 PM 78.8 °F - 75.2 °F 89% 30.11 in 10.0 mi Calm Calm - N/A   Clear
10:55 PM 78.8 °F - 73.4 °F 83% 30.11 in 10.0 mi ENE 5.8 mph - N/A   Clear
11:15 PM 80.6 °F 87.1 °F 77.0 °F 89% 30.11 in 10.0 mi NE 4.6 mph - N/A   Clear
11:35 PM 80.6 °F 86.2 °F 75.2 °F 84% 30.10 in 10.0 mi NE 4.6 mph - N/A   Clear
11:55 PM 80.6 °F 86.2 °F 75.2 °F 84% 30.10 in 10.0 mi ENE 4.6 mph - N/A   Clear